TimeEST,TemperatureF,Dew PointF,Humidity,Sea Level PressureIn,VisibilityMPH,Wind Direction,Wind SpeedMPH,Gust SpeedMPH,PrecipitationIn,Events,Conditions,WindDirDegrees,DateUTC
12:53 AM,30.9,24.1,76,30.40,10.0,North,3.5,-,N/A,,Clear,350,2012-12-13 05:53:00
1:53 AM,30.9,24.1,76,30.42,10.0,Calm,Calm,-,N/A,,Clear,0,2012-12-13 06:53:00
2:53 AM,28.0,21.9,78,30.42,10.0,Calm,Calm,-,N/A,,Clear,0,2012-12-13 07:53:00
3:53 AM,30.0,24.1,79,30.40,10.0,NNW,3.5,-,N/A,,Clear,340,2012-12-13 08:53:00
4:53 AM,27.0,23.0,85,30.41,10.0,Calm,Calm,-,N/A,,Clear,0,2012-12-13 09:53:00
5:53 AM,27.0,23.0,85,30.43,10.0,Calm,Calm,-,N/A,,Clear,0,2012-12-13 10:53:00
6:53 AM,27.0,23.0,85,30.42,10.0,Calm,Calm,-,N/A,,Clear,0,2012-12-13 11:53:00
7:53 AM,28.0,24.1,85,30.45,10.0,Calm,Calm,-,N/A,,Clear,0,2012-12-13 12:53:00
8:53 AM,30.0,26.1,85,30.46,10.0,Calm,Calm,-,N/A,,Clear,0,2012-12-13 13:53:00
9:53 AM,37.9,26.1,62,30.43,10.0,North,5.8,-,N/A,,Clear,350,2012-12-13 14:53:00
10:53 AM,42.1,24.1,49,30.43,10.0,Calm,Calm,-,N/A,,Clear,0,2012-12-13 15:53:00
11:53 AM,44.1,21.9,42,30.41,10.0,Calm,Calm,-,N/A,,Clear,0,2012-12-13 16:53:00
12:53 PM,46.0,21.0,37,30.37,10.0,Variable,4.6,-,N/A,,Clear,0,2012-12-13 17:53:00
1:53 PM,45.0,19.9,37,30.38,10.0,Calm,Calm,-,N/A,,Clear,0,2012-12-13 18:53:00
2:53 PM,45.0,21.0,39,30.36,10.0,West,4.6,-,N/A,,Clear,270,2012-12-13 19:53:00
3:53 PM,42.1,21.0,43,30.36,10.0,Calm,Calm,-,N/A,,Clear,0,2012-12-13 20:53:00
4:53 PM,37.0,23.0,57,30.36,10.0,Calm,Calm,-,N/A,,Clear,0,2012-12-13 21:53:00
7:53 PM,28.4,24.8,86,30.35,10.0,Calm,Calm,-,N/A,,Clear,0,2012-12-14 00:53:00
8:53 PM,27.0,24.1,89,30.34,10.0,Calm,Calm,-,N/A,,Clear,0,2012-12-14 01:53:00
9:53 PM,26.1,24.1,92,30.33,9.0,Calm,Calm,-,N/A,,Clear,0,2012-12-14 02:53:00
10:53 PM,26.1,23.0,88,30.31,9.0,Calm,Calm,-,N/A,,Clear,0,2012-12-14 03:53:00
11:53 PM,26.1,23.0,88,30.30,7.0,Calm,Calm,-,N/A,,Clear,0,2012-12-14 04:53:00